Weather History for Baker, MT

Change the Weather History Date:

Monday, January 21, 2013

  Actual Average Record
Temperature  
Mean Temperature 3 °F -  
Max Temperature 9 °F 42 °F 44 °F (2000)
Min Temperature -2 °F 8 °F -9 °F (2008)
Degree Days  
Heating Degree Days 62    
Moisture  
Dew Point -4 °F    
Average Humidity 68    
Maximum Humidity 76    
Minimum Humidity 60    
Precipitation  
Precipitation 0.00 in - - ()
Sea Level Pressure  
Sea Level Pressure 30.34 in    
Wind  
Wind Speed 9 mph (West)    
Max Wind Speed 15 mph    
Max Gust Speed -    
Visibility 8 miles    
Events Snow    
Averages and records for this station are not official NWS values.
T = Trace of Precipitation, MM = Missing Value Source: NWS Daily Summary

Daily Weather History Graph

Daily Weather History Graph

Search for Another Location

Airport:

Trip Planner

Search our weather history database for the weather conditions in past years. The results will help you decide how hot, cold, wet, or windy it might be!

Date:

Astronomy

Jan. 21, 2013 Rise Set
Actual Time 7:31 AM MST 4:45 PM MST
Civil Twilight 6:58 AM MST 5:19 PM MST
Nautical Twilight 6:21 AM MST 5:55 PM MST
Astronomical Twilight 5:45 AM MST 6:31 PM MST
Moon 12:26 PM MST (1/21) 3:02 AM MST (1/21)
Length of Visible Light 10h 20m
Length of Day
9h 14m
Waxing Gibbous, 75% of the Moon is Illuminated
Jan 21
Waxing Gibbous
Jan 26
Full
Feb 3
Last Quarter
Feb 10
New
Feb 17
First Quarter

Hourly Weather History & Observations

Time (MST) Temp. Windchill Dew Point Humidity Pressure Visibility Wind Dir Wind Speed Gust Speed Precip Events Conditions
12:51 AM -2.0 °F -20.5 °F -13.0 °F 60% 30.52 in 10.0 mi WNW 12.7 mph - N/A   Overcast
1:51 AM -2.0 °F -18.7 °F -11.9 °F 63% 30.50 in 10.0 mi WNW 10.4 mph - N/A   Overcast
2:51 AM -0.9 °F -20.6 °F -9.9 °F 66% 30.49 in 10.0 mi WNW 15.0 mph - N/A   Overcast
3:51 AM -0.0 °F -18.0 °F -9.0 °F 66% 30.48 in 10.0 mi WNW 12.7 mph - N/A   Overcast
4:51 AM -0.0 °F -15.3 °F -9.0 °F 66% 30.47 in 10.0 mi WNW 9.2 mph - N/A   Overcast
5:51 AM -0.0 °F -17.1 °F -8.0 °F 69% 30.48 in 10.0 mi WNW 11.5 mph - 0.00 in Snow Light Snow
6:51 AM 1.0 °F -12.9 °F -7.1 °F 69% 30.47 in 10.0 mi WNW 8.1 mph - 0.00 in   Overcast
7:51 AM 1.0 °F -12.9 °F -6.0 °F 72% 30.46 in 6.0 mi WNW 8.1 mph - 0.00 in Snow Light Snow
8:09 AM 1.4 °F -12.5 °F -5.8 °F 72% 30.24 in 2.5 mi WNW 8.1 mph - 0.00 in Snow Light Snow
8:18 AM 1.4 °F -12.5 °F -5.8 °F 72% 30.24 in 2.5 mi WNW 8.1 mph - 0.00 in Snow Light Snow
8:24 AM 1.4 °F -8.3 °F -5.8 °F 72% 30.24 in 3.0 mi WNW 4.6 mph - 0.00 in Snow Light Snow
8:51 AM 1.9 °F -12.9 °F -6.0 °F 69% 30.46 in 9.0 mi WNW 9.2 mph - 0.00 in Snow Light Snow
9:51 AM 3.0 °F -10.5 °F -6.0 °F 66% 30.48 in 10.0 mi West 8.1 mph - 0.00 in   Overcast
10:51 AM 3.9 °F -5.3 °F -5.1 °F 66% 30.45 in 10.0 mi West 4.6 mph - N/A   Overcast
11:51 AM 5.0 °F -4.1 °F -5.1 °F 63% 30.40 in 10.0 mi West 4.6 mph - N/A   Overcast
12:51 PM 6.1 °F -2.8 °F -4.0 °F 63% 30.37 in 10.0 mi WNW 4.6 mph - N/A   Overcast
1:51 PM 7.0 °F -1.7 °F -4.0 °F 61% 30.36 in 6.0 mi West 4.6 mph - 0.00 in Snow Light Snow
1:57 PM 6.8 °F -3.5 °F -2.2 °F 67% 30.16 in 4.0 mi West 5.8 mph - 0.00 in Snow Light Snow
2:19 PM 6.8 °F - -2.2 °F 67% 30.15 in 7.0 mi Calm Calm - 0.00 in Snow Light Snow
2:51 PM 7.0 °F - -2.0 °F 67% 30.34 in 7.0 mi Calm Calm - 0.00 in Snow Light Snow
3:12 PM 8.6 °F - -0.4 °F 67% 30.14 in 4.0 mi Calm Calm - 0.00 in Snow Light Snow
3:23 PM 8.6 °F - -0.4 °F 67% 30.13 in 7.0 mi Calm Calm - 0.00 in Snow Light Snow
3:51 PM 8.1 °F - -0.9 °F 67% 30.32 in 10.0 mi Calm Calm - 0.00 in   Overcast
4:51 PM 8.1 °F -0.5 °F -0.9 °F 67% 30.31 in 10.0 mi East 4.6 mph - 0.00 in   Overcast
5:51 PM 7.0 °F -3.3 °F -0.9 °F 70% 30.30 in 10.0 mi ESE 5.8 mph - N/A   Overcast
6:51 PM 8.1 °F -3.2 °F -0.0 °F 70% 30.29 in 10.0 mi SE 6.9 mph - N/A   Overcast
7:51 PM 8.1 °F -5.3 °F -0.0 °F 70% 30.29 in 10.0 mi ESE 9.2 mph - N/A   Overcast
8:51 PM 7.0 °F -7.5 °F -0.0 °F 73% 30.28 in 10.0 mi ESE 10.4 mph - 0.00 in   Overcast
9:51 PM 8.1 °F -6.2 °F 1.9 °F 76% 30.26 in 10.0 mi ESE 10.4 mph - N/A   Overcast
10:51 PM 8.1 °F -6.2 °F 1.9 °F 76% 30.25 in 10.0 mi SE 10.4 mph - N/A   Overcast
11:51 PM 9.0 °F -5.1 °F 1.9 °F 73% 30.22 in 10.0 mi ESE 10.4 mph - N/A   Overcast